Airfield :
LOGIN :

Register | Disclaimer

   EN    FR    IT 

 










Legend :    VFR   Marginal VFR   IFR   Intensive IFR   Very Intensive IFR
Visi :
Ceiling :
>= 8 km
>= 3000ft
5 to 8 km
1000 to 3000 ft
1500m to 5 km
500 to 1000 ft
800 to 1500m
200 to 500 ft
< 800m
< 200 ft
Symbols :   Thunderstorms  Fog  Heavy snow  Heavy precipitations  Wind > 20 kt
SIGMETs :     Misc.  Thunderstorms  Icing  Turbulence  Mountain Waves  Volcanic Ashes







- Airport Elevation : 863 ft
- IATA code : ZAZ


LEZG - Zaragoza Aragon

CURRENT METAR :
  • 191300Z 31017KT 280V340 9999 SCT030 15/08 Q1020

EXPIRED METARs :
  • 191230Z 31017KT 9999 FEW035 SCT050 15/08 Q1020
  • 191200Z 30013KT 9999 FEW035 14/08 Q1021
  • 191130Z 29013KT 260V320 9999 FEW040 13/07 Q1021
  • 191100Z 29014KT 250V310 9999 FEW035 12/07 Q1021
  • 191030Z 28011KT 250V310 9999 FEW035 11/06 Q1021

TAF TAF LEZG
Valid from the 19 at 12:00 until the 20 at 12:00 UTC


191100Z 1912/2012 28010KT 9999 FEW040 TX14/1914Z TN05/2007Z
TEMPO 1912/1917 30020G32KT
No reported NOTAMs for that airfield.



MET'MAP, your aeronautical weather chart ! - Copyright ORBIFLY December 2007 - Disclaimer

ORBIFLY MET'MAP TEAM :

Programming & Development : Alexandra Zaïnal
Concept & Development : Baudouin d'Aumeries
Co-Development & Prog : Marc-Olivier Méhu
Technical & hardware support : Manuel Goepfert

Contact : metmap@orbifly.com




SOURCES & CREDITS :

   NOAA